LTCG

Trabzon Airport

Airport
ICAO code
LTCG
IATA Code
TZX
Summary
ICAO Region
EUR
ICAO Territory
Location

Trabzon,

Serving
Trabzon
Elevation
104 ft
Coordinates
40° 59' 43" N , 39° 47' 20" E
Metar
LTCG 180020Z 20006KT 9999 BKN035 23/18 Q1016 TEMPO 4500 SHRA BKN007 FEW020CB BKN028

Trabzon Airport is an airport near the city of Trabzon in the eastern Black Sea region of Turkey.

Runways

Designator Length Width Surface Rops
11/29 2640 45 ASP Yes/Yes

Airport map

Aerial View

SKYbrary Partners:

Safety knowledge contributed by: